Regional Weather Roundup
Issued by NWS

Home | Current Version | Previous Version | Text Only | Print | Product List | Glossary On
Versions: 1 2 3 4 5 6 7 8 9 10 11 12 13 14 15 16 17 18 19 20 21 22 23 24 25 26 27 28 29 30 31 32 33 34 35 36 37 38 39 40 41 42 43 44 45 46 47 48 49 50
000
ASUS43 KLSX 270559
RWRMO

WEATHER SUMMARY FOR MISSOURI
NATIONAL WEATHER SERVICE SPRINGFIELD MO
100 AM CDT MON APR 27 2015

NOTE: "FAIR" INDICATES FEW OR NO CLOUDS BELOW 12,000 FEET WITH NO
       SIGNIFICANT WEATHER AND/OR OBSTRUCTIONS TO VISIBILITY.
       CURRENT SKY AND/OR WEATHER CONDITIONS ARE NOT AVAILABLE FOR
       CHILLICOTHE AND FARMINGTON.

MOZ001>031-035>038-043-044-053-054-270700-
...NORTHERN AND WESTERN MISSOURI...

CITY           SKY/WX    TMP DP  RH WIND       PRES   REMARKS
KANSAS CTY INT PTCLDY    47  39  74 NE8       30.03S
6HR MIN TEMP:  47; 6HR MAX TEMP:  60;

KANSAS C DTWN  CLEAR     50  38  63 E7        30.03R
6HR MIN TEMP:  50; 6HR MAX TEMP:  62;

LEE`S SUMMIT   PTCLDY    49  36  61 NE7       30.03S
6HR MIN TEMP:  49; 6HR MAX TEMP:  60;

ST JOSEPH      PTCLDY    51  33  50 NE12      30.06S
6HR MIN TEMP:  50; 6HR MAX TEMP:  62;

CHILLICOTHE      N/A     46  37  71 N6        30.08S
6HR MIN TEMP:  46; 6HR MAX TEMP:  62;

KIRKSVILLE     CLEAR     45  33  63 NE5       30.09R
6HR MIN TEMP:  42; 6HR MAX TEMP:  58;


$$
MOZ066>068-077>081-088>096-101>105-270700-
...SOUTHWEST MISSOURI...

CITY           SKY/WX    TMP DP  RH WIND       PRES   REMARKS
SPRINGFIELD    CLOUDY    51  37  58 E12       29.96R
6HR MIN TEMP:  48; 6HR MAX TEMP:  55;

JOPLIN         CLOUDY    52  43  71 E8        29.95R
6HR MIN TEMP:  51; 6HR MAX TEMP:  53;


$$
MOZ032>034-039>042-045>050-055>058-069>072-270700-
...CENTRAL MISSOURI...

CITY           SKY/WX    TMP DP  RH WIND       PRES   REMARKS
COLUMBIA       CLEAR     45  37  73 NE8       30.03S
6HR MIN TEMP:  45; 6HR MAX TEMP:  60;

JEFFERSON CITY PTCLDY    48  35  60 E3        30.03R
6HR MIN TEMP:  48; 6HR MAX TEMP:  62;

ROLLA          PTCLDY    47  36  65 NE9       30.00S
6HR MIN TEMP:  46; 6HR MAX TEMP:  58;

SEDALIA        PTCLDY    48  35  60 E7        30.04S
6HR MIN TEMP:  48; 6HR MAX TEMP:  61;

OSAGE BEACH    MOCLDY    50  34  53 E9        30.01S

$$
MOZ051-052-059>065-270700-
...EAST CENTRAL MISSOURI...

CITY           SKY/WX    TMP DP  RH WIND       PRES   REMARKS
ST LOUIS INTL  PTCLDY    50  35  56 NE5       30.05R
6HR MIN TEMP:  50; 6HR MAX TEMP:  61;

SPIRIT OF STL  CLEAR     43  40  89 CALM      30.04S
6HR MIN TEMP:  42; 6HR MAX TEMP:  60;

ST CHARLES     CLEAR     44  38  79 NE3       30.05S
6HR MIN TEMP:  42; 6HR MAX TEMP:  59;


$$
MOZ072>076-082>087-097>100-106>115-270700-
...SOUTH CENTRAL AND SOUTHEAST MISSOURI...

CITY           SKY/WX    TMP DP  RH WIND       PRES   REMARKS
CAPE GIRARDEAU CLEAR     50  39  66 N10       29.98S
6HR MIN TEMP:  50; 6HR MAX TEMP:  62;

FARMINGTON     CLEAR     46  37  71 NE9       30.04S
6HR MIN TEMP:  46; 6HR MAX TEMP:  59;

POPLAR BLUFF   CLEAR     52  39  61 N8        29.96R
6HR MIN TEMP:  52; 6HR MAX TEMP:  62;

WEST PLAINS    MOCLDY    49  36  61 NE9       29.98R
6HR MIN TEMP:  48; 6HR MAX TEMP:  60;


$$


USA.gov is the U.S. government's official web portal to all federal, state and local government web resources and services.